This is the latest recevied weather packets stored in our database for station/object WA6ODQ-13. If no packets are shown the sender has not sent any weather packets the latest 10 day(s).
| Time | Temp. | Humidity | Pressure | Rain* | Wind** | Luminosity | Snow |
|---|---|---|---|---|---|---|---|
| 1787852532 | 30° C | 42% | 1012.2 hPa | 0 mm | - | 532 W/m² | - |
| 1787852227 | 29.44° C | 44% | 1012 hPa | 0 mm | - | 516 W/m² | - |
| 1787851921 | 29.44° C | 44% | 1012.2 hPa | 0 mm | - | 503 W/m² | - |
| 1787851621 | 29.44° C | 46% | 1012.3 hPa | 0 mm | - | 490 W/m² | - |
| 1787851316 | 28.89° C | 46% | 1012.2 hPa | 0 mm | - | 474 W/m² | - |
| 1787851011 | 28.33° C | 47% | 1011.9 hPa | 0 mm | - | 462 W/m² | - |
| 1787850707 | 28.33° C | 48% | 1012.1 hPa | 0 mm | - | 449 W/m² | - |
| 1787850402 | 27.78° C | 47% | 1011.9 hPa | 0 mm | - | 435 W/m² | - |
| 1787850098 | 27.22° C | 46% | 1012.2 hPa | 0 mm | - | 422 W/m² | - |
| 1787849797 | 27.78° C | 47% | 1012 hPa | 0 mm | - | 409 W/m² | - |
| 1787849497 | 26.67° C | 48% | 1011.9 hPa | 0 mm | - | 396 W/m² | - |
| 1787849203 | 25.56° C | 49% | 1011.6 hPa | 0 mm | - | 383 W/m² | - |
| 1787848895 | 26.11° C | 49% | 1011.5 hPa | 0 mm | - | 369 W/m² | - |
| 1787848590 | 25.56° C | 50% | 1011.7 hPa | 0 mm | - | 354 W/m² | - |
| 1787848290 | 24.44° C | 53% | 1011.6 hPa | 0 mm | - | 341 W/m² | - |
| 1787847985 | 23.89° C | 53% | 1011.8 hPa | 0 mm | - | 114 W/m² | - |
| 1787847685 | 23.89° C | 55% | 1011.9 hPa | 0 mm | - | 41 W/m² | - |
| 1787847380 | 23.33° C | 55% | 1011.9 hPa | 0 mm | - | 48 W/m² | - |
| 1787847076 | 23.33° C | 58% | 1011.9 hPa | 0 mm | - | 39 W/m² | - |
| 1787846772 | 22.78° C | 58% | 1011.8 hPa | 0 mm | - | 46 W/m² | - |
| 1787846467 | 22.78° C | 59% | 1011.8 hPa | 0 mm | - | 37 W/m² | - |
| 1787846162 | 22.22° C | 62% | 1011.9 hPa | 0 mm | - | 37 W/m² | - |
| 1787845857 | 21.67° C | 66% | 1012 hPa | 0 mm | - | 40 W/m² | - |
| 1787845552 | 21.67° C | 67% | 1012 hPa | 0 mm | - | 35 W/m² | - |
| 1787845248 | 21.11° C | 69% | 1012.1 hPa | 0 mm | - | 34 W/m² | - |
* Rain latest hour (hover to see other rain measurements)
** Current wind speed in m/s (hover to see current wind gust speed)